Weather Roundup
Issued by NWS

Home | Current Version | Previous Version | Text Only | Print | Product List | Glossary On
Versions: 1 2 3 4 5 6 7 8 9 10 11 12 13 14 15 16 17 18 19 20 21 22 23 24 25 26 27 28 29 30 31 32 33 34 35 36 37 38 39 40 41 42 43 44 45 46 47 48 49 50
000
NZUS93 KARX 211710
HRRWXR

CURRENT HOURLY OBSERVATIONS ACROSS
MUCH OF THE UPPER MISSISSIPPI VALLEY
NATIONAL WEATHER SERVICE LA CROSSE WI
1100 AM CST SUN DEC 21 2014


...SOUTHEAST MINNESOTA...


CITY           SKY/WX    TMP DP  RH WIND       PRES   REMARKS
ROCHESTER      CLOUDY    35  34  96 S17G26    29.88F FOG     WCI  25
ROCHESTER/MAYO CLOUDY    35  35 100 S13G21    29.88F WCI  26
WINONA         CLOUDY    36  34  93 SE8       29.94F FOG     WCI  29
AUSTIN         CLOUDY    36  36 100 S15G23    29.86F FOG     WCI  26
ALBERT LEA     FOG       36  36 100 S16G22    29.84F VSB 3/4 WCI  26
DODGE CENTER   CLOUDY    36  36 100 S18       29.86F FOG     WCI  25
PRESTON        FOG       34  33  98 S16G23    29.91F VSB 1   WCI  23
OWATONNA       FOG       36  34  93 S15G21    29.85F VSB 3/4 WCI  26
FARIBAULT      FOG       36  34  93 SE15      29.85F VSB 3/4 WCI  26
$$

...ELSEWHERE IN MINNESOTA...


CITY           SKY/WX    TMP DP  RH WIND       PRES   REMARKS
MINNEAPOLIS    LGT SNOW  34  33  96 SE9       29.85F FOG     WCI  27
INTNL FALLS    CLOUDY    30  28  92 VRB7      29.77F FOG     WCI  23
DULUTH         FOG       31  28  89 SE12      29.85S VSB 3/4 WCI  22
RED WING       LGT RAIN  36  34  93 SE8       29.88F WCI  29
REDWOOD FALLS  CLOUDY    35  34  96 S13       29.76S FOG     WCI  26
MANKATO        CLOUDY    36  32  87 S14       29.82F WCI  27
WORTHINGTON    CLOUDY    34 N/A N/A S15G21    29.75F VSB 3/4 WCI  24
FAIRMONT       CLOUDY    36  32  87 S14       29.80F WCI  27
$$

...SOUTHWEST WISCONSIN...


CITY           SKY/WX    TMP DP  RH WIND       PRES   REMARKS
LA CROSSE      CLOUDY    37  34  89 S9        29.98F FOG     WCI  30
PRAIRIE DU CHI CLOUDY    38  33  84 SE9G16    30.01F FOG     WCI  31
BOSCOBEL       CLOUDY    38  34  85 S9        30.03F FOG     WCI  31
LONE ROCK      CLOUDY    40  32  73 S6        30.05F HAZE
PLATTEVILLE    CLOUDY    36  34  93 S14       30.05F WCI  27
FORT MC COY    CLOUDY    35  33  95 SE9       30.00F FOG     WCI  27
CAMP DOUGLAS   CLOUDY    32  32 100 SE8       30.01F FOG     WCI  25
VIROQUA        CLOUDY    34  34 100 S15       29.97F VSB 3/4 WCI  24
WIS DELLS      CLOUDY    34  32  92 S14       30.03F FOG     WCI  25
$$

...ELSEWHERE IN WISCONSIN...


CITY           SKY/WX    TMP DP  RH WIND       PRES   REMARKS
MILWAUKEE      CLOUDY    36  28  73 S9        30.14F WCI  29
MADISON        CLOUDY    34  31  88 S13       30.08F FOG     WCI  25
GREEN BAY      CLOUDY    33  30  88 S9        30.10F FOG     WCI  25
EAU CLAIRE     LGT SNOW  33  31  92 SE13      29.93F FOG     WCI  24
BLACK RVR FLS  CLOUDY    35  35  99 S6        29.98F FOG     WCI  30
MEDFORD        FOG       30  29  98 SE12      29.95F VSB 3/4 WCI  20
WAUSAU         CLOUDY    31  29  92 SE9       30.00F FOG     WCI  23
WIS RAPIDS     CLOUDY    33  30  88 S8        30.03F FOG     WCI  26
MARSHFIELD     FOG       32  30  92 S14       29.99F VSB 1/2 WCI  22
RICE LAKE      LGT SNOW  32  31  96 SE10      29.92F WCI  24
$$

...NORTHEAST IOWA...


CITY           SKY/WX    TMP DP  RH WIND       PRES   REMARKS
DECORAH        CLOUDY    36  36 100 S14G21    29.94F FOG     WCI  27
MASON CITY     CLOUDY    36  35  96 S18G25    29.88F FOG     WCI  26
CHARLES CITY   CLOUDY    37  37 100 S17G25    29.91F FOG     WCI  28
OELWEIN        CLOUDY    37  36  93 S17       29.97F FOG     WCI  28
$$

...ELSEWHERE IN IOWA...


CITY           SKY/WX    TMP DP  RH WIND       PRES   REMARKS
DES MOINES     CLOUDY    40  34  79 S17G28    29.94F WCI  31
IOWA CITY      CLOUDY    39  35  86 S12       30.06F WCI  32
FORT DODGE     CLOUDY    37  34  87 S16G24    29.86F WCI  28
$$

...NORTHERN ILLINOIS...


CITY           SKY/WX    TMP DP  RH WIND       PRES   REMARKS
CHICAGO-OHARE  CLOUDY    34  28  79 S13       30.17F WCI  25
CHICAGO-MIDWAY CLOUDY    36  28  73 S13       30.19F WCI  27
MOLINE         CLOUDY    39  33  79 SE10      30.09F WCI  32
ROCKFORD       CLOUDY    35  30  82 S16       30.15F HAZE    WCI  25
PEORIA         CLOUDY    40  31  70 S15       30.15F WCI  32
$$

NOTE: "FAIR" INDICATES FEW OR NO CLOUDS BELOW 12,000 FEET WITH NO
SIGNIFICANT WEATHER AND/OR OBSTRUCTIONS TO VISIBILITY. WIND
SPEEDS ARE IN MILES-PER-HOUR.



USA.gov is the U.S. government's official web portal to all federal, state and local government web resources and services.